EW9994 Weather Reports


time (UTC)temp
C
wind
direction
speed
KPH
gust
KPH
rain 1hr
cm
rain 24hr
cm
rain mn
cm
humidity
%
barometer
mb
20260503191406 15 44 4.8 9.7 0.00 0.00 0.00 63 1018.7
20260503190407 15 44 8.0 12.9 0.00 0.00 0.00 64 1018.6
20260503184907 16 44 4.8 9.7 0.00 0.00 0.00 63 1018.6
20260503184407 16 27 6.4 12.9 0.00 0.00 0.00 63 1018.6
20260503183906 16 55 8.0 12.9 0.00 0.00 0.00 63 1018.5
20260503183407 16 35 9.7 12.9 0.00 0.00 0.00 63 1018.6
20260503181907 16 23 4.8 9.7 0.00 0.00 0.00 63 1018.4
20260503181407 17 23 3.2 9.7 0.00 0.00 0.00 62 1018.4
20260503180906 17 26 8.0 12.9 0.00 0.00 0.00 61 1018.3
20260503180406 17 26 8.0 12.9 0.00 0.00 0.00 61 1018.3
20260503174907 18 29 8.0 12.9 0.00 0.00 0.00 60 1018.2
20260503174407 18 29 9.7 16.1 0.00 0.00 0.00 59 1018.1
20260503173906 18 34 8.0 12.9 0.00 0.00 0.00 58 1018.0
20260503173406 18 36 6.4 11.3 0.00 0.00 0.00 57 1018.0
20260503171907 20 119 1.6 3.2 0.00 0.00 0.00 50 1018.0
20260503170906 21 220 3.2 4.8 0.00 0.00 0.00 47 1018.1
20260503170407 21 227 1.6 12.9 0.00 0.00 0.00 47 1018.1
20260503150406 22 230 4.8 16.1 0.00 0.00 0.00 42 1018.3
20260503131407 22 203 14.5 22.5 0.00 0.00 0.00 44 1019.9
20260503130907 22 226 6.4 16.1 0.00 0.00 0.00 44 1020.0
20260503081406 16 224 6.4 9.7 0.00 0.00 0.00 63 1021.3
20260503080906 16 203 8.0 9.7 0.00 0.00 0.00 64 1021.4
20260503080421 16 267 3.2 9.7 0.00 0.00 0.00 66 1021.4
20260503071907 15 46 1.6 8.0 0.00 0.00 0.00 72 1021.6
20260503071406 14 41 3.2 4.8 0.00 0.00 0.00 73 1021.7
20260503054906 11 40 1.6 3.2 0.00 0.00 0.00 78 1021.8
20260503051905 10 40 8.0 12.9 0.00 0.00 0.00 82 1021.6
20260503050405 9 32 6.4 11.3 0.00 0.00 0.00 82 1021.7
20260503043906 9 32 6.4 9.7 0.00 0.00 0.00 82 1021.6
20260503043405 9 32 4.8 11.3 0.00 0.00 0.00 82 1021.5
20260503041406 9 32 4.8 9.7 0.00 0.00 0.00 82 1021.5
20260503040408 9 32 6.4 11.3 0.00 0.00 0.00 81 1021.4
20260503034906 9 32 6.4 11.3 0.00 0.00 0.00 81 1021.4
20260503034405 9 32 6.4 11.3 0.00 0.00 0.00 81 1021.3
20260503033906 9 32 8.0 9.7 0.00 0.00 0.00 81 1021.3
20260503031906 10 30 4.8 11.3 0.00 0.00 0.00 80 1021.2
20260503030906 10 33 8.0 12.9 0.00 0.00 0.00 80 1021.2
20260503024406 10 42 8.0 11.3 0.00 0.00 0.00 80 1021.3
20260503023406 10 43 4.8 9.7 0.00 0.00 0.00 78 1021.3
20260503021405 11 43 6.4 9.7 0.00 0.00 0.00 77 1021.2
20260503020905 11 44 9.7 12.9 0.00 0.00 0.00 76 1021.1
20260503020406 11 52 8.0 12.9 0.00 0.00 0.00 76 1021.2
20260503014906 11 27 4.8 11.3 0.00 0.00 0.00 76 1021.1
20260503014405 11 27 8.0 12.9 0.00 0.00 0.00 76 1021.2
20260503011407 11 30 8.0 12.9 0.00 0.00 0.00 76 1021.3
20260503010905 11 29 8.0 12.9 0.00 0.00 0.00 75 1021.3
20260503004906 11 29 4.8 11.3 0.00 0.00 0.00 75 1021.4
20260503004406 11 29 3.2 8.0 0.00 0.00 0.00 75 1021.4
20260503001906 11 29 3.2 9.7 0.00 0.00 0.00 74 1021.6
20260503001405 11 29 9.7 12.9 0.00 0.00 0.00 74 1021.6
20260503000905 11 29 4.8 9.7 0.00 0.00 0.00 74 1021.6
20260503000407 11 29 3.2 12.9 0.00 0.00 0.00 74 1021.7
20260502230906 12 30 4.8 9.7 0.00 0.00 0.00 72 1021.9
20260502230405 12 30 6.4 12.9 0.00 0.00 0.00 72 1022.0
20260502221406 12 30 8.0 12.9 0.00 0.00 0.00 70 1022.0
20260502220406 12 30 8.0 14.5 0.00 0.00 0.00 70 1021.9
20260502211908 13 30 8.0 9.7 0.00 0.00 0.00 67 1021.9
20260502211406 13 30 9.7 11.3 0.00 0.00 0.00 66 1021.8
20260502210905 14 30 3.2 11.3 0.00 0.00 0.00 65 1021.8
20260502204405 14 30 4.8 12.9 0.00 0.00 0.00 66 1021.6
20260502203408 14 33 11.3 14.5 0.00 0.00 0.00 66 1021.6
20260502201906 14 30 6.4 12.9 0.00 0.00 0.00 66 1021.8
20260502201405 14 30 4.8 11.3 0.00 0.00 0.00 65 1021.8
20260502200405 15 30 9.7 12.9 0.00 0.00 0.00 65 1021.8
20260502194905 15 30 6.4 9.7 0.00 0.00 0.00 63 1021.7
20260502193406 15 30 3.2 4.8 0.00 0.00 0.00 62 1021.6